Wind_Speed
21 21 19 18 18 17 16 14 12 9 9 8 8 8 8 6 5 6 8 9 8 8 8 9 10 11 10 9 4 9 9 10 18 21 18 15 13 18 14 20 15 13 12 12 11
22 22 22 21 21 20 16 14 12 10 10 9 9 8 7 8 8 9 9 11 10 12 11 12 15 17 18 11 10 10 5 10 17 18 18 17 25 21 20 17 13 12 14 12 11
26 26 25 23 20 17 14 13 11 10 8 7 8 8 7 7 8 8 11 11 12 13 14 15 19 20 17 11 7 5 14 16 15 16 16 22 25 22 15 12 10 11 12 12 13
26 25 23 21 19 17 15 15 14 12 11 9 8 9 8 7 7 9 10 12 14 13 14 17 17 18 16 12 10 6 9 11 15 18 20 24 23 20 14 22 13 14 16 16 12
28 26 24 21 20 19 18 17 17 17 16 15 14 12 9 10 12 9 12 14 14 14 13 13 17 16 16 13 12 7 0 5 10 16 18 25 22 21 25 29 17 11 15 12 10
30 29 28 26 25 24 23 22 22 21 20 18 17 17 14 17 12 10 12 15 16 15 14 14 16 19 17 14 11 10 7 4 4 11 13 21 23 25 25 34 15 14 9 11 11
24 29 29 28 27 25 24 23 22 21 20 19 18 17 18 16 13 17 15 14 16 17 16 16 15 17 16 17 7 7 9 9 8 7 11 20 20 24 25 28 21 10 16 16 15
26 29 28 27 26 25 24 22 21 21 20 19 19 18 21 17 16 21 19 18 18 17 17 17 12 14 11 12 9 12 9 9 4 13 13 19 20 23 26 21 20 20 21 18 19
23 25 27 26 25 23 22 21 21 21 20 20 20 20 20 19 22 24 21 21 20 20 20 19 14 11 10 14 12 15 17 15 13 11 8 12 20 20 24 23 24 19 21 17 15
16 20 23 23 23 23 23 23 21 20 19 20 20 21 22 20 20 24 25 22 21 22 23 23 19 17 17 18 13 19 12 5 8 18 12 4 18 19 20 22 24 22 19 15 16
13 14 17 19 20 21 21 21 20 20 21 21 19 21 19 19 21 23 26 26 25 25 23 23 21 15 15 16 17 17 10 1 10 13 8 7 21 18 16 21 21 19 15 12 11
15 16 17 18 19 21 22 21 22 20 19 19 17 20 17 17 19 24 25 26 26 24 26 24 19 17 18 21 22 18 14 5 15 10 4 8 14 21 15 17 24 23 16 12 7
15 18 20 20 21 22 20 21 22 20 19 22 20 21 19 17 19 21 24 26 26 26 25 25 18 21 23 22 19 19 16 11 6 3 7 16 14 12 9 17 19 21 16 11 9
16 17 17 19 20 21 20 21 21 19 18 21 18 19 17 18 20 21 21 26 25 25 26 26 22 24 26 25 20 20 12 12 4 2 1 9 13 13 11 16 15 19 18 12 4
11 13 17 19 17 16 19 20 18 16 19 16 15 18 20 19 19 19 21 22 24 24 27 21 24 25 27 25 23 21 11 25 8 7 12 15 16 18 14 19 14 14 13 9 6
9 11 14 15 17 20 20 17 15 14 15 10 17 17 14 18 19 18 18 21 25 26 27 26 26 27 26 28 25 13 12 19 10 13 21 23 19 17 19 17 17 12 6 3 7
11 11 13 14 15 16 16 16 13 15 15 17 19 13 15 15 16 15 17 19 24 25 25 25 26 27 27 33 28 19 16 18 15 22 22 20 15 20 19 11 14 11 3 6 6
12 13 15 14 15 14 14 13 14 16 20 21 19 12 7 13 13 12 16 16 22 23 24 25 26 26 26 30 26 21 21 23 15 11 19 14 18 21 25 16 15 12 4 10 8
15 14 13 15 15 14 13 12 19 20 22 23 14 9 9 12 7 10 12 13 19 22 22 22 19 23 22 17 27 29 29 18 20 21 30 20 20 26 29 30 19 15 5 8 11
17 16 14 16 16 15 11 16 21 27 28 26 22 15 12 15 16 6 7 9 16 20 19 18 18 24 21 15 21 34 29 26 24 30 27 18 24 24 14 17 24 14 4 10 9
18 18 16 17 15 13 12 20 25 33 33 31 28 24 18 17 15 8 7 5 13 17 15 18 22 23 27 19 12 8 20 31 32 34 29 17 10 12 14 7 15 14 12 18 8
17 16 17 18 16 13 16 25 30 37 37 34 29 27 22 22 18 16 19 10 7 7 6 20 26 25 23 20 18 22 11 23 34 30 26 17 11 19 8 8 20 21 18 24 33
17 17 16 17 19 18 22 24 27 35 37 37 31 30 28 28 26 22 21 16 13 16 16 12 28 27 27 25 21 24 23 15 21 22 18 21 14 15 16 17 21 18 20 29 28
17 15 12 13 15 19 19 19 23 34 34 37 34 32 33 33 34 31 25 23 22 25 19 16 21 32 33 30 26 21 27 24 24 24 16 26 21 13 12 13 17 22 29 26 18
16 11 14 16 16 16 18 23 24 27 33 36 31 30 31 36 40 38 32 28 26 29 22 19 22 29 39 35 32 24 28 27 28 26 30 23 21 19 21 18 22 21 19 21 16
17 17 17 16 15 16 21 25 25 30 32 35 32 33 26 35 39 41 41 36 30 32 30 24 23 23 35 40 34 29 25 37 31 35 28 32 24 25 26 21 16 17 13 13 17
20 19 18 18 17 18 21 20 25 25 29 29 34 34 28 29 37 44 43 38 35 36 37 34 31 26 30 38 42 38 17 32 26 31 33 31 22 19 13 11 19 15 3 12 23
Wind_Direction
227 228 234 243 254 263 267 262 252 241 234 236 241 235 230 222 206 207 205 206 170 165 162 151 153 148 167 195 81 57 45 334 342 351 16 44 28 9 6 10 1 1 2 20 48
234 234 238 246 255 260 256 247 243 239 237 237 233 232 226 221 219 223 215 216 192 164 167 158 148 165 167 148 137 45 9 357 28 353 18 30 29 12 15 359 3 360 12 359 56
242 243 247 252 255 252 238 228 228 227 226 229 221 215 217 222 230 230 225 213 206 183 185 181 162 186 177 182 72 6 3 14 358 18 29 42 23 355 350 25 21 24 21 15 52
242 244 245 245 244 239 230 224 227 234 236 232 227 223 217 218 230 225 222 211 216 207 195 200 183 198 203 173 134 118 320 8 354 359 23 26 21 3 28 15 6 34 28 30 28
241 237 236 234 234 233 232 232 235 239 245 244 240 235 223 219 229 233 212 208 216 219 222 211 181 184 197 178 164 151 243 319 344 338 6 3 356 23 3 353 327 45 33 24 28
244 239 234 234 235 238 241 243 245 247 248 246 243 239 230 227 238 230 223 208 214 226 232 223 205 194 209 233 186 175 172 252 299 319 346 338 351 7 359 357 359 23 64 28 42
254 239 235 235 237 238 240 241 242 242 244 244 242 238 237 231 223 232 221 228 224 228 236 236 234 220 234 250 222 191 145 203 268 308 311 325 348 359 7 10 18 9 57 32 29
247 240 233 233 236 238 240 241 243 243 243 242 242 241 242 232 215 229 217 218 227 230 235 246 246 244 235 235 202 149 151 127 190 261 272 301 348 350 352 14 18 24 52 29 27
239 238 234 235 236 237 238 242 245 247 247 246 244 241 240 236 215 230 233 229 225 225 229 240 234 242 240 222 209 166 161 166 158 244 322 296 331 341 357 8 14 14 25 25 28
232 230 230 229 231 234 240 243 244 245 246 245 245 245 245 242 232 225 234 228 227 227 225 233 235 219 214 215 220 197 191 205 206 208 232 337 305 329 358 12 12 10 17 27 27
233 228 226 227 231 235 236 238 241 242 245 247 249 249 243 241 234 235 230 230 225 227 229 234 234 228 220 196 218 206 169 50 177 172 219 331 305 307 331 8 12 359 360 350 27
239 235 234 234 236 238 240 243 245 246 251 251 250 251 246 240 239 235 234 234 229 229 228 231 230 227 204 206 199 228 137 198 193 207 308 325 309 303 326 344 354 351 340 344 8
243 241 239 238 240 244 248 248 248 249 248 252 249 253 251 249 240 238 235 234 232 227 229 229 219 223 219 217 212 219 167 222 212 143 327 295 288 287 353 5 358 338 358 346 338
246 244 242 239 238 239 242 246 250 251 243 254 250 255 249 243 241 238 235 232 231 228 228 225 223 220 218 218 211 165 175 254 188 232 300 237 243 273 308 329 347 320 358 13 327
258 251 246 244 241 241 242 244 245 246 248 247 247 247 250 242 241 235 232 232 227 225 227 224 226 221 221 218 219 182 211 282 195 209 245 237 252 274 288 301 313 306 356 38 30
272 262 258 253 244 240 242 246 248 243 245 229 235 237 240 247 240 240 229 228 225 221 223 220 217 219 222 211 208 199 269 240 201 228 235 249 251 251 277 278 268 275 342 287 15
268 264 262 259 251 245 242 239 238 237 236 221 224 229 225 231 237 239 232 224 222 222 224 225 226 225 207 207 204 205 228 245 260 251 254 261 272 269 292 247 254 255 260 290 295
274 259 256 257 254 247 238 229 218 224 233 243 229 206 204 225 229 235 233 224 221 220 219 220 224 228 217 211 203 206 228 244 248 253 262 263 277 271 272 268 215 234 248 314 348
277 274 257 254 251 250 235 209 216 219 225 231 232 233 237 198 220 239 234 219 227 220 225 225 216 215 219 215 209 197 220 251 246 262 265 266 270 269 246 236 224 243 293 314 328
276 269 270 255 248 242 233 201 207 213 221 221 224 201 215 206 199 168 249 236 225 224 219 227 226 219 162 180 196 219 215 228 232 254 248 274 271 285 241 234 228 242 289 293 341
271 266 261 261 254 241 215 201 203 213 218 220 241 244 202 202 222 194 264 320 233 212 218 220 216 192 189 195 203 254 232 222 227 243 247 267 279 295 324 260 238 316 304 290 331
266 258 257 256 251 239 219 209 208 212 217 227 236 237 216 193 212 216 229 204 274 193 223 212 221 196 203 201 203 212 254 240 218 234 252 266 284 306 328 298 297 308 314 295 336
265 259 260 264 252 235 228 222 216 222 220 226 234 240 220 202 205 207 226 207 203 216 234 217 222 204 199 200 216 226 216 256 229 225 222 259 270 297 304 285 308 311 301 321 331
271 272 276 264 260 248 240 225 222 225 227 231 234 233 221 212 210 207 209 208 208 208 223 230 241 216 202 200 213 226 217 220 217 236 216 252 271 289 282 301 301 313 321 300 285
272 269 251 245 243 246 249 243 222 225 226 231 235 234 227 215 213 214 208 201 205 208 214 227 249 229 213 208 215 223 211 213 229 234 239 261 264 270 264 286 282 282 298 288 292
266 254 248 253 257 251 239 240 241 223 226 227 235 230 227 218 217 222 219 214 210 214 212 226 244 246 224 217 220 232 234 210 221 226 237 243 253 265 281 288 273 274 320 313 302
263 261 255 256 257 253 259 253 245 247 235 232 238 237 222 218 223 228 228 225 225 220 218 223 236 239 231 223 223 231 240 206 217 225 230 248 264 272 243 228 265 262 44 295 291
Height
5914 5916 5917 5919 5920 5921 5921 5922 5922 5923 5924 5924 5925 5926 5926 5927 5928 5928 5928 5929 5930 5932 5932 5932 5931 5931 5931 5931 5929 5931 5929 5931 5929 5928 5931 5931 5925 5922 5921 5920 5917 5913 5909 5906 5911
5910 5912 5914 5916 5917 5918 5918 5919 5919 5920 5922 5923 5924 5924 5925 5926 5926 5927 5928 5928 5928 5931 5932 5931 5931 5932 5932 5934 5933 5932 5934 5934 5932 5931 5931 5929 5924 5923 5922 5921 5918 5915 5909 5906 5912
5906 5908 5910 5912 5913 5914 5915 5916 5917 5918 5920 5921 5922 5923 5924 5925 5925 5926 5927 5927 5928 5929 5929 5930 5930 5932 5934 5933 5933 5935 5934 5933 5934 5934 5933 5931 5929 5926 5923 5924 5921 5917 5913 5908 5912
5902 5903 5905 5907 5909 5910 5912 5914 5915 5916 5918 5919 5920 5922 5923 5924 5925 5925 5925 5926 5927 5928 5929 5929 5929 5932 5932 5931 5932 5932 5932 5934 5934 5935 5934 5932 5931 5929 5926 5925 5921 5917 5913 5908 5908
5897 5899 5901 5903 5905 5907 5909 5911 5912 5914 5915 5917 5919 5920 5922 5923 5922 5923 5924 5925 5925 5926 5927 5928 5928 5929 5930 5928 5928 5932 5935 5933 5935 5934 5934 5933 5930 5933 5930 5924 5921 5916 5912 5913 5911
5891 5893 5896 5898 5900 5902 5904 5906 5908 5910 5911 5913 5915 5917 5919 5919 5921 5921 5922 5923 5924 5924 5926 5927 5925 5925 5928 5927 5928 5929 5932 5934 5933 5934 5934 5933 5928 5930 5929 5925 5926 5921 5916 5917 5914
5885 5887 5890 5892 5895 5897 5899 5902 5904 5906 5907 5909 5911 5912 5914 5917 5919 5918 5920 5922 5923 5922 5924 5925 5924 5925 5927 5927 5928 5930 5930 5933 5929 5932 5933 5931 5931 5930 5932 5928 5926 5921 5920 5919 5916
5879 5881 5884 5887 5890 5892 5895 5897 5898 5901 5903 5905 5907 5908 5909 5913 5916 5914 5916 5918 5921 5921 5922 5922 5924 5925 5926 5927 5928 5928 5931 5932 5935 5932 5932 5932 5929 5930 5930 5929 5925 5921 5913 5915 5913
5874 5876 5879 5882 5885 5888 5890 5892 5894 5896 5899 5901 5903 5904 5906 5908 5910 5910 5913 5914 5916 5919 5920 5919 5922 5924 5926 5926 5928 5928 5928 5931 5933 5931 5932 5932 5925 5929 5928 5928 5924 5918 5914 5918 5915
5870 5872 5875 5878 5881 5884 5886 5888 5890 5892 5894 5896 5897 5901 5902 5904 5905 5907 5907 5910 5913 5915 5916 5918 5918 5922 5923 5926 5927 5926 5927 5931 5933 5933 5933 5932 5928 5929 5929 5927 5925 5918 5918 5921 5919
5867 5869 5871 5874 5877 5879 5881 5884 5887 5889 5889 5891 5894 5894 5897 5898 5900 5902 5903 5905 5908 5910 5913 5914 5916 5919 5921 5924 5923 5925 5925 5929 5930 5930 5932 5932 5927 5926 5927 5927 5926 5926 5923 5921 5922
5864 5866 5868 5870 5872 5874 5877 5879 5881 5885 5886 5887 5889 5889 5892 5893 5895 5896 5900 5902 5904 5907 5908 5910 5914 5917 5917 5918 5921 5923 5925 5928 5928 5930 5930 5931 5932 5928 5929 5927 5926 5925 5924 5923 5922
5861 5862 5864 5866 5867 5870 5873 5875 5876 5879 5883 5882 5884 5885 5887 5890 5891 5892 5895 5896 5899 5901 5904 5906 5913 5913 5913 5914 5919 5922 5922 5922 5928 5926 5928 5929 5930 5930 5928 5929 5928 5925 5927 5924 5922
5857 5858 5860 5861 5864 5866 5868 5869 5872 5875 5877 5878 5881 5881 5883 5883 5886 5887 5889 5892 5894 5897 5899 5902 5906 5909 5909 5911 5916 5919 5920 5918 5922 5924 5925 5925 5927 5927 5927 5928 5928 5924 5924 5922 5921
5853 5854 5855 5857 5860 5862 5863 5864 5867 5870 5872 5875 5876 5876 5876 5880 5881 5882 5883 5886 5889 5891 5894 5900 5900 5904 5906 5910 5912 5915 5917 5917 5919 5921 5924 5923 5923 5921 5923 5925 5926 5923 5924 5925 5923
5850 5850 5850 5852 5854 5856 5858 5861 5864 5867 5867 5872 5870 5871 5873 5872 5875 5878 5880 5881 5882 5885 5888 5892 5894 5896 5904 5907 5908 5912 5913 5915 5914 5918 5920 5919 5920 5922 5921 5923 5922 5922 5922 5923 5923
5846 5847 5847 5847 5849 5851 5854 5857 5861 5861 5862 5863 5864 5867 5869 5870 5871 5874 5875 5877 5878 5881 5884 5887 5890 5893 5897 5901 5903 5906 5910 5910 5913 5915 5916 5916 5916 5918 5919 5920 5916 5918 5921 5919 5922
5842 5842 5843 5844 5845 5847 5850 5854 5855 5856 5855 5854 5860 5862 5864 5865 5867 5869 5871 5873 5874 5876 5878 5881 5885 5889 5894 5897 5901 5903 5906 5907 5909 5911 5912 5912 5913 5915 5915 5918 5913 5913 5917 5917 5917
5838 5838 5839 5840 5841 5843 5846 5849 5850 5851 5852 5851 5853 5859 5861 5863 5864 5865 5868 5870 5870 5872 5875 5878 5883 5884 5889 5896 5899 5901 5901 5905 5905 5906 5906 5909 5910 5910 5905 5911 5912 5905 5908 5911 5911
5833 5833 5834 5834 5836 5839 5842 5845 5847 5846 5847 5848 5849 5852 5856 5857 5859 5860 5864 5866 5867 5869 5871 5876 5878 5881 5885 5886 5891 5895 5902 5902 5901 5900 5902 5905 5904 5904 5904 5904 5904 5906 5904 5907 5907
5829 5828 5829 5829 5832 5835 5837 5839 5841 5841 5842 5846 5847 5849 5852 5855 5856 5856 5861 5864 5865 5866 5868 5871 5875 5880 5879 5882 5887 5890 5894 5895 5897 5897 5899 5902 5903 5902 5902 5901 5896 5899 5897 5899 5902
5823 5824 5824 5824 5828 5829 5831 5832 5833 5834 5837 5840 5846 5847 5849 5851 5852 5853 5855 5858 5864 5863 5865 5868 5869 5874 5876 5880 5882 5884 5889 5891 5891 5895 5897 5899 5899 5897 5899 5897 5892 5893 5894 5897 5895
5817 5818 5819 5820 5821 5822 5823 5826 5829 5829 5831 5834 5837 5841 5843 5846 5848 5850 5851 5855 5855 5858 5861 5865 5866 5869 5873 5878 5880 5880 5883 5888 5890 5890 5892 5894 5897 5895 5897 5892 5892 5897 5900 5899 5894
5813 5814 5816 5815 5816 5817 5819 5821 5825 5826 5828 5828 5830 5833 5837 5840 5841 5843 5847 5850 5852 5854 5857 5859 5861 5864 5868 5872 5873 5875 5876 5881 5884 5886 5884 5886 5889 5890 5892 5891 5891 5889 5892 5895 5898
5808 5810 5808 5807 5809 5811 5814 5815 5816 5820 5821 5821 5824 5827 5831 5833 5835 5837 5842 5846 5848 5850 5854 5855 5857 5859 5862 5865 5867 5870 5873 5879 5881 5883 5884 5885 5887 5890 5890 5892 5890 5896 5898 5895 5894
5803 5803 5803 5804 5804 5806 5805 5806 5810 5809 5812 5814 5816 5817 5822 5826 5830 5833 5836 5840 5842 5846 5848 5848 5851 5853 5855 5859 5861 5863 5865 5870 5874 5879 5879 5880 5882 5887 5887 5887 5885 5886 5889 5888 5888
5796 5797 5798 5799 5800 5800 5800 5802 5803 5807 5808 5811 5812 5813 5815 5818 5822 5823 5826 5832 5836 5838 5840 5842 5843 5845 5847 5850 5854 5856 5863 5861 5870 5871 5876 5877 5881 5884 5885 5886 5877 5881 5882 5885 5886